Regional Weather Roundup
Issued by NWS

Home | Current Version | Previous Version | Graphics & Text | Print | Product List | Glossary On
Versions: 1 2 3 4 5 6 7 8 9 10 11 12 13 14 15 16 17 18 19 20 21 22 23 24 25 26 27 28 29 30 31 32 33 34 35 36 37 38 39 40 41 42 43 44 45 46 47 48 49 50
010
ASUS43 KMKX 200720
RWRWI

WISCONSIN REGIONAL WEATHER ROUNDUP
NATIONAL WEATHER SERVICE MILWAUKEE/SULLIVAN WI
200 AM CDT SUN MAY 20 2018

NOTE: "FAIR" INDICATES FEW OR NO CLOUDS BELOW 12,000 FEET WITH NO
SIGNIFICANT WEATHER AND/OR OBSTRUCTIONS TO VISIBILITY.

WIZ001-002-006>008-014>016-023>028-200800-
NORTHWEST WISCONSIN

CITY           SKY/WX    TMP DP  RH WIND       PRES   REMARKS
SUPERIOR ARPT  FAIR      38  36  92 CALM      30.25R
ASHLAND        FAIR      37  34  89 CALM      30.23R
HAYWARD        FAIR      37  35  92 CALM      30.21R
SIREN          FAIR      43  36  76 NE3       30.23R
CUMBERLAND     FAIR      41  34  75 NE9       30.20S
RICE LAKE      FAIR      41  36  81 NE8       30.21S
CHETEK         FAIR      43  37  80 NE7       30.19F
LADYSMITH      FAIR      39  35  84 N7        30.21R WCI  34
EAU CLAIRE     CLOUDY    47  37  68 NE17G24   30.14S
MENOMONIE      CLOUDY    48  36  62 N16       30.16F
NEW RICHMOND   FAIR      44  35  70 NE8       30.19S
OSCEOLA        FAIR      41  37  86 NE5       30.22F
$$

WIZ003>005-009-010-017-018-200800-
NORTH CENTRAL WISCONSIN

CITY           SKY/WX    TMP DP  RH WIND       PRES   REMARKS
MANITOWISH WTR FAIR      38  36  92 NE7       30.18S WCI  32
ARBOR VITAE    MOCLDY    42  38  86 CALM      30.16S
WOODRUFF       MOCLDY    42  38  86 CALM      30.16S
RHINELANDER    CLOUDY    42  37  82 NE9       30.16S
EAGLE RIVER    CLOUDY    39  33  79 N9        30.17R WCI  33
LAND O LAKES   FAIR      38  35  89 NE3       30.19S
PHILLIPS       FAIR      37  35  92 NE5       30.19R WCI  34
TOMAHAWK       FAIR      40  35  81 NE3       30.19R
MEDFORD        CLOUDY    42  36  79 NE9       30.16R
MERRILL        CLOUDY    42  38  83 NE3       30.18R
$$

WIZ029-030-035-036-043>047-200800-
CENTRAL WISCONSIN

CITY           SKY/WX    TMP DP  RH WIND       PRES   REMARKS
WAUSAU         CLOUDY    45  38  76 NE8       30.14R
MOSINEE        CLOUDY    45  37  76 NE14      30.16R
MARSHFIELD     CLOUDY    47  40  76 NE9       30.14R
STEVENS POINT  NOT AVBL
WAUPACA        CLOUDY    50  42  73 N6        30.14R
WAUTOMA        HVY RAIN  48  44  86 NE10      30.12R
WISC RAPIDS    CLOUDY    49  40  71 NE10      30.13R
CAMP DOUGLAS   LGT RAIN  49  47  93 N5        30.11R
$$

WIZ011>013-019>022-031-037>040-048>050-200800-
NORTHEAST WISCONSIN

CITY           SKY/WX    TMP DP  RH WIND       PRES   REMARKS
ANTIGO         CLOUDY    40  37  87 N6        30.17R
SHAWANO        CLOUDY    48  40  72 NE13      30.15R
OCONTO         CLOUDY    46  38  74 N7        30.14R
STURGEON BAY   CLOUDY    44  39  82 N12       30.15R
GREEN BAY      LGT RAIN  47  40  76 N12       30.13R
MANITOWOC      CLOUDY    47  40  76 N8        30.13R
APPLETON       CLOUDY    46  37  71 N13       30.11R
CLINTONVILLE   CLOUDY    48  38  69 NE8       30.14R
OSHKOSH        CLOUDY    51  44  77 NE13      30.11R
$$

WIZ032>034-041-042-053>061-200800-
SOUTHWEST WISCONSIN

CITY           SKY/WX    TMP DP  RH WIND       PRES   REMARKS
LA CROSSE      HVY RAIN  51  45  79 NE7       30.10R
SPARTA         HVY RAIN  48  45  87 NE10      30.12R
VIROQUA        CLOUDY    49  47  91 NE14G20   30.08S
BOSCOBEL       CLOUDY    57  51  80 NE8       30.04R
PRAIRIE DU CHI MOCLDY    58  51  76 N6        30.03R
PLATTEVILLE    CLOUDY    60  60 100 N15       30.02S
$$

WIZ056-057-062-063-064-067-068-200800-
SOUTH CENTRAL WISCONSIN

CITY           SKY/WX    TMP DP  RH WIND       PRES   REMARKS
REEDSBURG      CLOUDY    58  52  82 E8        30.08R
BARABOO/DELLS  CLOUDY    56  50  79 E7        30.07S
LONE ROCK      CLOUDY    59  56  89 N14       30.03S
MINERAL POINT  RAIN      57  57 100 NE8       30.03R
MADISON        LGT RAIN  54  52  93 E12G24    30.06S FOG
MIDDLETON      CLOUDY    56  55  93 E12G17    30.06R
WATERTOWN      RAIN      50  48  92 NE7       30.10R
MONROE         CLOUDY    59  57  94 NE10      30.04R FOG
JANESVILLE     CLOUDY    55  54  94 E12G17    30.07R
$$

WIZ051-052-058>065-066-070>072-200800-
SOUTHEAST WISCONSIN

CITY           SKY/WX    TMP DP  RH WIND       PRES   REMARKS
MILWAUKEE      CLOUDY    46  41  82 NE13G24   30.09R
WAUKESHA       CLOUDY    45  39  81 NE10G18   30.10R
MILWAUKEE/TIMM CLOUDY    45  37  76 NE9G16    30.11S
RACINE         CLOUDY    46  41  82 N13G26    30.10R
BURLINGTON     CLOUDY    49  41  74 NE13G21   30.07F
KENOSHA        CLOUDY    48  40  73 NE17G31   30.08F
FOND DU LAC    CLOUDY    52  44  74 NE13      30.11R
SHEBOYGAN      CLOUDY    47  42  83 NE10      30.11R
WEST BEND      CLOUDY    46  43  87 NE9       30.11R
JUNEAU         CLOUDY    51  45  79 NE5       30.11R
$$

LSZ147-162-200800-
LAKE SUPERIOR

STATION/POSITION TIME  TEMP    WIND        PRES    WAVE
                       AIR SEA DIR/SP/G            HT/PER
                 (UTC) (F)     (DEG/KT/KT) (MB)    (FT/S)
W MID LAKE BUOY  0650   39 36  290/  2/  2 1024.1S   2/ 5
DEVILS ISLAND    0700   39      10/  4/  4 1024.7R
SAXON HARBOR     0630   36     190/  2/  3 1022.7R
$$

LMZ867-665-643>646-200800-
LAKE MICHIGAN

STATION/POSITION TIME  TEMP    WIND        PRES    WAVE
                       AIR SEA DIR/SP/G            HT/PER
                 (UTC) (F)     (DEG/KT/KT) (MB)    (FT/S)
NORTHPORT PIER   0640   42                 1020.3R
KEWAUNEE LAKESHO 0654   46     360/  9/ 15 1019.0S
SHEBOYGAN LAKESH 0700   45      30/ 17/ 19 1020.1R
PORT WASHINGTON  0630   46      30/  9/ 16 1020.7R
MILWAUKEE LAKESH 0700   44      30/ 20/ 23   N/A
KENOSHA   LAKESH 0700   46                 1018.6
$$

TC  - TEMPERATURE IN CELSIUS
VSB - VISIBILITY IN STATUTE MILES
WCI - WIND CHILL INDEX
HX  - HEAT INDEX





USA.gov is the U.S. government's official web portal to all federal, state and local government web resources and services.